Location: Kershaw
(34.5481°N, 80.5823°W)
Time: 16:13:16
(UTC+00:00)

Vanguard 1 Rocket - Pass Details

Date: 09 October 2022
Orbit: 650 x 4225 km, 34.3° (Epoch: 08 December)

Event Time Altitude Azimuth Distance (km) Brightness Sun altitude
Rises 02:53:02 0° 276° (W) 7,928 12.8 -47.6°
Reaches altitude 10° 02:59:06 10° 277° (W) 6,479 12.1 -48.7°
Enters shadow 03:13:53 57° 272° (W) 2,704 9.6 -51.1°
Maximum altitude 03:17:40 84° 192° (SSW) 2,095 - -51.7°
Drops below altitude 10° 03:26:40 10° 105° (ESE) 3,406 - -53.0°
Sets 03:28:52 0° 105° (ESE) 4,095 - -53.4°
